#timestamp,LO_Frequency,Hit,StdDev 
1668751215.3,286046996.5,N
1668751235.1,286046995.1,N
1668751236.0,286046995.1,N
1668751255.8,286046996.8,N
1668751275.7,286046999.2,N
1668751295.5,286046998.3,N
1668751315.3,286046998.4,N
1668751335.2,286046999.0,N
1668751355.0,286047002.8,N
1668751355.9,286047002.8,N
1668751375.8,286047001.5,N
1668751395.6,286047000.6,N
1668751415.4,286047002.7,N
1668751435.3,286047000.9,N
1668751455.1,286047002.5,N
1668751456.0,286047002.5,N
1668751475.8,286047002.2,N
1668751495.7,286047001.6,N
1668751515.5,286047001.4,N
1668751535.3,286047002.2,N
1668751555.2,286047003.7,N
1668751575.0,286047004.0,N
1668751575.9,286047004.0,N
1668751595.8,286047003.3,N
1668751615.6,286047003.6,N
1668751635.4,286047001.7,N
1668751655.3,286047002.4,N
1668751675.1,286047001.0,N
1668751695.8,286046999.9,N
1668751715.7,286047004.3,N
1668751735.5,286047004.4,N
1668751755.4,286047003.2,N
1668751775.2,286047003.7,N
1668751795.0,286047005.9,Y
1668751795.9,286047005.9,P
1668751815.8,286046998.2,N
1668751835.6,286047004.0,N
1668751855.4,286047004.2,N
1668751875.3,286047002.1,N
1668751895.1,286047000.8,N
1668751915.9,286046998.1,N
1668751935.7,286047000.2,N
1668751955.5,286047002.3,N
1668751975.4,286046998.1,N
1668751995.2,286047000.4,N
1668752015.0,286046999.7,N
1668752016.0,286046999.7,N
1668752035.8,286046998.7,N
1668752055.6,286047000.2,N
1668752075.5,286046999.8,N
1668752095.3,286046999.3,N
1668752115.1,286047002.4,N
1668752135.9,286046998.9,N
1668752155.7,286046998.9,N
1668752175.5,286046998.8,N
1668752195.4,286047001.1,N
1668752215.2,286046998.3,N
1668752235.1,286047002.6,N
1668752236.0,286047002.6,N
1668752255.8,286047002.3,N
1668752275.6,286047000.9,N
1668752295.5,286047001.4,N
1668752315.3,286047001.9,N
1668752335.1,286046998.8,N
1668752355.9,286047000.7,N
1668752405.7,286047001.6,E
1668752415.7,286047000.6,N
1668752435.5,286047000.7,P
1668752455.3,286046999.4,P
1668752475.2,286046995.8,Y
1668752495.0,286046999.7,P
1668752495.9,286046999.7,N
1668752515.8,286046998.4,P
1668752535.6,286046999.6,N
1668752555.4,286046997.4,Y
1668752575.3,286047000.3,P
1668752595.1,286047000.1,N
1668752615.8,286046998.8,P
1668752635.7,286047000.6,N
1668752655.5,286047001.1,N
1668752675.4,286047000.4,N
1668752695.2,286047000.5,N
1668752715.0,286046998.4,N
1668752715.9,286046998.4,N
1668752735.8,286046998.5,N
1668752755.6,286046999.8,N
1668752775.4,286047001.3,N
1668752795.3,286047004.4,Y
1668752815.1,286047000.3,P
1668752835.9,286047003.4,P
1668752855.7,286047005.5,P
1668752875.5,286047000.9,N
1668752895.4,286047004.3,N
1668752915.2,286047005.2,N
1668752935.0,286047003.4,N
1668752935.9,286047003.4,N
1668752955.8,286047002.1,N
1668752975.6,286047003.2,N
1668752995.5,286047003.6,N
1668753015.3,286047000.3,N
1668753035.1,286047002.2,N
1668753055.9,286047002.8,N
1668753075.7,286047002.3,N
1668753095.5,286047001.0,N
1668753115.4,286047002.8,N
1668753135.2,286047022.6,Y
1668753155.1,286047018.9,P
1668753156.0,286047018.9,N
1668753175.8,286047019.2,N
1668753195.6,286047017.9,N
1668753215.5,286047017.3,N
1668753235.3,286047021.6,Y
1668753255.2,286047003.3,P
1668753275.9,286047003.8,N
1668753295.7,286047003.8,N
1668753315.6,286047004.1,N
1668753335.4,286047001.7,N
1668753355.2,286047003.9,N
1668753375.1,286047001.6,N
1668753376.0,286047001.6,N
1668753395.8,286047003.8,N
1668753415.7,286047003.9,N
1668753435.5,286047003.7,N
1668753455.3,286047003.8,N
1668753475.2,286047003.7,N
1668753495.0,286047004.2,N
1668753495.9,286047004.2,N
1668753515.7,286047001.3,N
1668753535.6,286047000.1,N
1668753555.4,286047002.3,N
1668753575.3,286047002.5,N
1668753595.1,286046982.5,Y
1668753596.0,286046982.5,P
1668753615.8,286046978.0,N
1668753635.7,286046978.5,N
1668753655.5,286046976.3,N
1668753675.3,286046976.2,N
1668753695.2,286046975.7,N
1668753715.0,286046976.9,N
1668753715.9,286046976.9,N
1668753735.8,286046975.9,N
1668753755.6,286046979.4,N
1668753775.4,286046976.1,Y
1668753795.3,286046997.0,P
1668753815.1,286046997.7,N
1668753835.9,286046996.0,N
1668753855.7,286046996.2,N
1668753875.5,286046994.7,N
1668753895.4,286047000.8,N
1668753915.2,286046997.0,N
1668753935.0,286046997.9,N
1668753935.9,286046997.9,N
1668753955.8,286046996.7,N
1668753975.6,286046999.5,N
1668753995.5,286046998.0,N
1668754015.3,286046999.2,N
1668754035.1,286046997.3,N
1668754055.9,286046999.6,N
1668754075.7,286046995.1,N
1668754095.5,286046998.3,N
1668754115.4,286046997.3,N
1668754135.2,286046996.3,N
1668754155.0,286046996.6,N
1668754156.0,286046996.6,N
1668754175.8,286046998.4,N
1668754195.6,286046998.6,N
1668754215.5,286046998.6,N
1668754235.3,286047000.8,N
1668754255.1,286047000.0,N
1668754275.9,286047002.7,N
1668754295.7,286046994.9,N
1668754315.6,286046998.9,N
1668754335.4,286047001.1,N
1668754355.2,286046998.1,N
1668754375.1,286046997.8,N
1668754376.0,286046997.8,N
1668754395.8,286046999.6,N
1668754415.6,286046996.8,N
1668754435.5,286047000.8,N
1668754455.3,286046998.4,N
1668754475.2,286046996.6,N
1668754495.9,286046997.7,N
1668754515.7,286046998.8,N
1668754535.6,286047001.0,N
1668754555.4,286047000.6,N
1668754575.2,286046998.5,N
1668754595.1,286047001.1,N
1668754596.0,286047001.1,N
1668754615.8,286047000.6,N
1668754635.7,286046996.7,N
1668754655.5,286046994.9,N
1668754675.3,286046999.2,N
1668754695.2,286046999.1,N
1668754715.0,286046997.3,N
1668754715.9,286046997.3,N
1668754735.7,286046996.5,N
1668754755.6,286046999.3,N
1668754775.4,286046998.8,N
1668754795.3,286046995.9,N
